QXE2389 KPDX-KMFR

Flight info

Callsign QXE2389
Flight time N/A
Altitude 27000
Route MINNE5 MINNE Q5 HISKU SAMIE
Aircraft CRJ7/M-SDFGIRWY/S

Departure

Time 2026-05-04 19:14
Airport Portland International Airport (KPDX)

Arrival

Time N/A
Airport Rogue Valley International-Medford Airport (KMFR)
Time Latitude Longitude Altitude Speed Heading
2026-05-04 19:08 45.59037 -122.59816 37 ft 0 kts 206°
2026-05-04 19:09 45.59039 -122.59815 37 ft 1 kts 206°
2026-05-04 19:09 45.59051 -122.59806 37 ft 3 kts 206°
2026-05-04 19:09 45.59068 -122.59794 37 ft 3 kts 206°
2026-05-04 19:09 45.59085 -122.59779 37 ft 3 kts 220°
2026-05-04 19:10 45.59099 -122.59757 37 ft 3 kts 237°
2026-05-04 19:10 45.59102 -122.59749 37 ft 0 kts 241°
2026-05-04 19:10 45.59111 -122.59850 37 ft 16 kts 287°
2026-05-04 19:10 45.59137 -122.59995 37 ft 19 kts 267°
2026-05-04 19:11 45.59047 -122.60153 37 ft 20 kts 212°
2026-05-04 19:11 45.58925 -122.60231 37 ft 19 kts 171°
2026-05-04 19:11 45.58839 -122.60079 37 ft 21 kts 119°
2026-05-04 19:11 45.58771 -122.59907 37 ft 20 kts 120°
2026-05-04 19:12 45.58701 -122.59734 37 ft 20 kts 119°
2026-05-04 19:12 45.58590 -122.59445 37 ft 20 kts 119°
2026-05-04 19:12 45.58522 -122.59271 37 ft 20 kts 119°
2026-05-04 19:13 45.58454 -122.59101 37 ft 19 kts 136°
2026-05-04 19:13 45.58361 -122.59121 37 ft 12 kts 246°
2026-05-04 19:13 45.58377 -122.59220 37 ft 14 kts 297°
2026-05-04 19:13 45.58516 -122.59591 38 ft 82 kts 299°
2026-05-04 19:14 45.58949 -122.60695 43 ft 172 kts 299°
2026-05-04 19:14 45.59643 -122.62461 477 ft 225 kts 299°
2026-05-04 19:14 45.60368 -122.64301 1522 ft 206 kts 300°
2026-05-04 19:15 45.63021 -122.71149 1791 ft 239 kts 302°
2026-05-04 19:15 45.63914 -122.73135 2324 ft 235 kts 304°
2026-05-04 19:16 45.64809 -122.75084 2956 ft 234 kts 303°
2026-05-04 19:16 45.65682 -122.77040 3582 ft 233 kts 302°
2026-05-04 19:16 45.66497 -122.79042 4199 ft 233 kts 295°
2026-05-04 19:16 45.66858 -122.81293 4836 ft 235 kts 276°
2026-05-04 19:17 45.66797 -122.83639 5470 ft 236 kts 264°
2026-05-04 19:17 45.66489 -122.85914 6094 ft 237 kts 258°
2026-05-04 19:17 45.66039 -122.88170 6848 ft 235 kts 254°
2026-05-04 19:17 45.65301 -122.90240 7565 ft 237 kts 231°
2026-05-04 19:18 45.63896 -122.91468 8339 ft 239 kts 206°
2026-05-04 19:18 45.62285 -122.92080 9092 ft 239 kts 195°
2026-05-04 19:18 45.60636 -122.92421 9842 ft 238 kts 192°
2026-05-04 19:18 45.59001 -122.92649 10585 ft 235 kts 190°
2026-05-04 19:19 45.57387 -122.92834 11326 ft 231 kts 189°
2026-05-04 19:19 45.55803 -122.93004 12066 ft 226 kts 189°
2026-05-04 19:19 45.54253 -122.93170 12805 ft 220 kts 190°
2026-05-04 19:19 45.52749 -122.93333 13539 ft 213 kts 190°
2026-05-04 19:20 45.51299 -122.93492 14268 ft 205 kts 191°
2026-05-04 19:20 45.49909 -122.93646 14991 ft 195 kts 191°
2026-05-04 19:20 45.48599 -122.93792 15704 ft 182 kts 192°
2026-05-04 19:20 45.47381 -122.93929 16319 ft 173 kts 192°
2026-05-04 19:21 45.46178 -122.94074 16714 ft 174 kts 192°
2026-05-04 19:21 45.44962 -122.94224 17093 ft 176 kts 192°
2026-05-04 19:21 45.43734 -122.94373 17472 ft 178 kts 192°
2026-05-04 19:21 45.42510 -122.94519 17845 ft 180 kts 192°
2026-05-04 19:22 45.41244 -122.94671 18158 ft 186 kts 192°
2026-05-04 19:22 45.39920 -122.94831 18434 ft 195 kts 192°
2026-05-04 19:22 45.38532 -122.94998 18708 ft 205 kts 191°
2026-05-04 19:22 45.37058 -122.95176 18894 ft 221 kts 191°
2026-05-04 19:23 45.35465 -122.95370 19001 ft 240 kts 191°
2026-05-04 19:23 45.33716 -122.95582 19019 ft 263 kts 190°
2026-05-04 19:23 45.31819 -122.95809 19016 ft 284 kts 189°
2026-05-04 19:23 45.29783 -122.96048 19011 ft 303 kts 189°
2026-05-04 19:24 45.27624 -122.96294 19007 ft 319 kts 189°
2026-05-04 19:24 45.25359 -122.96517 19004 ft 333 kts 187°
2026-05-04 19:24 45.23000 -122.96634 19002 ft 345 kts 185°
2026-05-04 19:24 45.20558 -122.96676 19001 ft 355 kts 184°
2026-05-04 19:25 45.18064 -122.96668 19000 ft 363 kts 183°
2026-05-04 19:25 45.15518 -122.96626 18999 ft 369 kts 183°
2026-05-04 19:25 45.12934 -122.96564 18998 ft 374 kts 182°
2026-05-04 19:25 45.10321 -122.96488 18998 ft 377 kts 182°
2026-05-04 19:26 45.07683 -122.96404 18997 ft 380 kts 182°
2026-05-04 19:26 45.05029 -122.96314 18997 ft 382 kts 182°
2026-05-04 19:26 45.02365 -122.96221 18997 ft 383 kts 182°
2026-05-04 19:26 44.99686 -122.96126 18996 ft 384 kts 182°
2026-05-04 19:27 44.97040 -122.96032 18996 ft 385 kts 182°
2026-05-04 19:27 44.94361 -122.95937 18996 ft 385 kts 182°
2026-05-04 19:27 44.91681 -122.95842 18996 ft 385 kts 182°
2026-05-04 19:27 44.88994 -122.95748 18996 ft 386 kts 182°
2026-05-04 19:28 44.86312 -122.95654 18996 ft 386 kts 182°
2026-05-04 19:28 44.83626 -122.95560 18996 ft 386 kts 182°
2026-05-04 19:28 44.80940 -122.95468 18996 ft 386 kts 182°
2026-05-04 19:28 44.78255 -122.95375 18996 ft 386 kts 182°
2026-05-04 19:29 44.75574 -122.95283 18996 ft 386 kts 182°
2026-05-04 19:29 44.72882 -122.95191 18996 ft 386 kts 182°
2026-05-04 19:29 44.70232 -122.95101 18996 ft 386 kts 182°
2026-05-04 19:29 44.67548 -122.95010 18996 ft 386 kts 182°
2026-05-04 19:30 44.64858 -122.94919 18996 ft 386 kts 182°
2026-05-04 19:30 44.62173 -122.94828 18996 ft 386 kts 182°
2026-05-04 19:30 44.59489 -122.94737 18996 ft 386 kts 182°
2026-05-04 19:30 44.56803 -122.94646 18996 ft 386 kts 182°
2026-05-04 19:31 44.54121 -122.94557 18996 ft 386 kts 182°
2026-05-04 19:31 44.51439 -122.94525 18996 ft 385 kts 184°
2026-05-04 19:31 44.48758 -122.94552 18996 ft 385 kts 184°
2026-05-04 19:31 44.46078 -122.94613 18996 ft 385 kts 185°
2026-05-04 19:32 44.43402 -122.94695 18996 ft 385 kts 185°
2026-05-04 19:32 44.40721 -122.94789 18996 ft 385 kts 185°
2026-05-04 19:32 44.38045 -122.94889 18996 ft 385 kts 185°
2026-05-04 19:32 44.35483 -122.94989 18996 ft 385 kts 185°
2026-05-04 19:33 44.32811 -122.95094 18331 ft 386 kts 185°
2026-05-04 19:33 44.30080 -122.95251 16741 ft 384 kts 188°
2026-05-04 19:33 44.29989 -122.96289 10093 ft 370 kts 328°
2026-05-04 19:33 44.31605 -122.98386 9491 ft 306 kts 312°
2026-05-04 19:34 44.33137 -123.00502 7068 ft 318 kts 313°
2026-05-04 19:34 44.34701 -123.02625 4517 ft 280 kts 315°
2026-05-04 19:34 44.35868 -123.04456 2713 ft 241 kts 311°